Vorticity
4 4 4 4 4 4 4 4 4 4 4 3 3 3 2 3 4 4 4 4 5 5 6 6 6 6 5 5 5 4 4 4 4 3 4 3 2 3 3 3 4 5 5
5 5 5 5 4 3 4 5 4 3 3 3 3 3 4 4 4 4 4 4 4 5 5 5 5 5 6 6 6 6 5 5 4 3 4 5 7 3 4 4 3 3 4
8 9 10 10 11 14 14 11 7 5 6 7 7 7 7 7 9 9 10 9 8 7 6 5 4 4 4 5 6 8 8 9 7 7 4 4 5 6 7 5 4 4 4
12 12 11 9 7 8 10 9 8 8 8 8 7 5 6 8 9 8 8 8 9 9 10 10 9 9 8 8 9 9 9 11 8 5 3 4 4 2 3 6 9 6 6
9 10 8 8 8 6 6 7 7 7 8 8 9 12 13 12 12 10 10 10 10 10 10 10 10 9 8 8 8 9 9 10 9 9 9 9 9 6 4 -2 5 6 7
11 9 8 8 6 7 6 8 10 11 11 11 10 8 8 9 8 9 8 6 5 4 5 5 6 6 7 7 6 6 6 7 7 7 8 9 10 9 5 5 3 5 7
8 8 8 7 6 6 7 7 7 6 6 7 6 6 7 7 7 7 6 7 7 8 8 7 7 6 5 5 5 5 5 5 5 5 6 6 6 6 7 9 3 1 3
9 10 10 9 9 9 8 8 7 8 8 9 9 7 6 6 7 8 11 11 11 10 10 10 9 8 7 6 7 8 7 5 5 5 6 6 6 6 6 7 7 7 7
8 10 10 10 9 8 10 13 13 12 10 7 6 6 6 7 8 7 8 5 6 4 8 8 7 7 6 5 3 5 6 6 7 7 6 6 5 5 7 8 9 8 5
6 5 3 3 6 8 8 6 4 5 6 8 9 8 7 8 9 10 11 12 13 11 9 9 7 7 7 8 10 10 13 14 14 13 11 14 11 9 11 10 11 9 10
9 11 13 13 10 8 10 11 11 11 11 5 4 5 4 4 6 5 6 6 4 4 5 1 7 15 13 6 5 6 4 6 8 10 11 11 7 3 6 10 9 11 13
7 8 7 7 7 10 9 6 7 6 4 3 2 3 5 7 8 9 8 6 8 8 6 6 5 4 5 6 5 4 6 8 9 7 6 7 7 9 11 9 6 8 9
3 3 3 8 10 5 5 5 4 1 2 4 7 9 9 9 11 9 6 4 5 7 7 6 5 2 4 5 6 6 6 7 9 10 11 11 11 10 12 11 9 10 10
4 7 7 8 6 5 5 5 6 8 9 10 12 10 5 1 2 5 7 6 5 5 6 7 8 9 10 10 14 16 17 19 21 24 25 27 27 30 29 28 28 24 23
9 6 6 8 8 7 6 7 7 9 8 7 4 5 7 10 8 6 5 6 10 14 17 20 20 21 26 30 29 29 29 28 26 26 27 27 28 28 27 26 27 29 31
2 11 13 13 9 9 8 9 9 9 8 7 7 6 6 7 8 11 16 22 24 24 24 22 16 12 13 13 15 17 17 16 16 17 17 14 13 13 16 17 18 16 19
7 11 11 10 8 7 6 6 5 6 7 8 10 12 11 13 20 26 27 21 16 18 22 25 25 24 24 24 22 21 20 17 16 16 15 15 16 17 17 18 17 17 17
13 11 9 8 6 5 7 8 11 12 13 15 18 21 22 25 25 21 23 22 18 16 14 13 12 12 13 14 16 17 18 19 18 18 18 16 15 16 13 11 12 15 14
6 6 7 8 10 12 12 12 14 17 21 29 21 19 24 26 20 15 11 10 11 11 12 12 11 12 13 15 17 17 16 16 18 19 16 16 14 12 12 10 12 12 15
10 12 12 11 14 20 21 21 25 21 26 20 24 21 17 12 8 8 6 5 6 7 9 10 10 9 12 15 16 16 16 17 18 14 18 15 12 10 13 13 13 12 15
16 20 19 20 23 21 20 21 19 25 17 17 12 9 8 5 4 3 2 2 3 5 6 9 9 10 16 17 17 17 15 15 15 15 13 12 11 12 13 13 11 14 12
22 20 20 22 23 23 19 17 15 9 8 8 7 6 5 3 3 3 4 6 6 6 6 7 9 18 21 18 17 18 16 15 14 12 12 11 11 12 15 15 14 12 12
20 18 17 15 13 9 7 6 7 6 6 7 6 5 5 6 7 7 7 8 7 7 5 7 14 25 20 19 18 18 17 13 13 12 11 10 13 16 15 16 15 14 14
8 6 4 4 4 5 5 6 5 5 6 6 6 7 8 9 9 9 9 8 7 6 6 10 24 21 21 19 18 17 16 14 12 12 11 12 19 17 17 17 15 15 16
6 6 7 7 7 7 7 8 8 8 8 8 9 10 9 9 9 9 8 7 7 6 8 23 21 21 19 18 16 18 14 12 12 12 11 18 18 17 15 15 16 16 18
7 7 7 8 8 8 8 7 7 7 8 9 10 9 9 9 8 7 6 6 6 10 20 23 19 17 18 18 18 15 13 12 14 11 16 22 17 13 14 18 18 18 17
Height
5746 5746 5746 5746 5746 5747 5747 5747 5747 5747 5747 5747 5748 5748 5747 5747 5747 5748 5748 5748 5749 5749 5749 5749 5750 5750 5750 5750 5750 5750 5751 5752 5753 5754 5753 5753 5754 5755 5756 5757 5759 5761 5762
5734 5734 5733 5733 5733 5733 5732 5733 5733 5733 5733 5733 5733 5733 5733 5733 5733 5733 5733 5732 5732 5732 5732 5732 5733 5733 5734 5734 5735 5735 5736 5737 5737 5738 5739 5739 5738 5739 5740 5741 5743 5745 5747
5719 5719 5719 5719 5719 5718 5719 5719 5719 5718 5718 5718 5718 5717 5717 5717 5716 5716 5716 5715 5715 5715 5714 5714 5714 5715 5715 5716 5717 5718 5719 5719 5720 5720 5720 5722 5723 5724 5723 5724 5725 5727 5729
5706 5705 5705 5705 5704 5705 5705 5705 5704 5703 5703 5702 5702 5701 5701 5700 5699 5699 5699 5698 5698 5697 5696 5696 5696 5696 5696 5697 5698 5699 5700 5701 5701 5702 5702 5702 5703 5706 5710 5707 5705 5707 5710
5693 5693 5692 5691 5691 5691 5690 5690 5689 5688 5687 5686 5685 5684 5683 5682 5682 5681 5680 5680 5679 5679 5678 5677 5677 5677 5677 5677 5678 5678 5678 5679 5680 5681 5681 5682 5682 5684 5688 5692 5690 5689 5689
5680 5679 5678 5678 5677 5676 5674 5673 5672 5671 5670 5669 5668 5667 5666 5665 5664 5662 5661 5660 5660 5659 5659 5658 5657 5657 5657 5657 5657 5657 5658 5658 5658 5658 5659 5659 5660 5661 5664 5668 5670 5672 5671
5666 5666 5665 5664 5663 5661 5659 5658 5656 5655 5653 5651 5650 5649 5647 5646 5644 5643 5641 5640 5639 5638 5638 5636 5635 5635 5634 5634 5635 5635 5635 5635 5635 5635 5636 5636 5636 5637 5638 5641 5645 5649 5652
5651 5650 5649 5648 5646 5644 5642 5640 5638 5637 5635 5634 5632 5630 5629 5627 5626 5624 5623 5621 5618 5616 5615 5614 5613 5612 5611 5611 5611 5610 5610 5610 5610 5610 5610 5611 5612 5613 5614 5615 5617 5621 5625
5632 5631 5630 5628 5627 5626 5624 5623 5621 5619 5617 5615 5613 5612 5610 5608 5607 5605 5602 5600 5597 5595 5593 5591 5590 5588 5587 5585 5584 5584 5583 5583 5583 5583 5583 5584 5584 5586 5587 5588 5590 5592 5597
5614 5612 5611 5610 5609 5607 5606 5604 5602 5600 5598 5596 5593 5591 5589 5587 5585 5583 5581 5578 5575 5572 5570 5567 5566 5564 5561 5560 5559 5559 5557 5556 5555 5555 5554 5554 5554 5555 5555 5557 5560 5562 5564
5597 5595 5593 5591 5590 5588 5586 5584 5582 5579 5577 5574 5572 5569 5567 5565 5563 5560 5557 5555 5552 5549 5546 5543 5540 5537 5535 5533 5532 5531 5530 5529 5527 5525 5524 5525 5522 5523 5522 5523 5525 5527 5529
5581 5578 5576 5574 5572 5569 5566 5563 5560 5558 5555 5553 5550 5547 5544 5541 5539 5535 5532 5529 5526 5523 5520 5516 5514 5510 5508 5504 5503 5501 5499 5497 5497 5495 5495 5495 5491 5493 5491 5490 5490 5491 5492
5563 5560 5558 5554 5551 5548 5546 5543 5539 5536 5533 5530 5527 5522 5519 5516 5513 5510 5506 5503 5500 5496 5491 5488 5484 5480 5476 5473 5470 5467 5465 5463 5463 5462 5461 5460 5458 5459 5456 5456 5457 5455 5456
5544 5541 5537 5534 5530 5526 5523 5519 5516 5512 5509 5505 5502 5497 5492 5489 5486 5482 5478 5474 5471 5467 5462 5457 5453 5449 5445 5441 5437 5433 5431 5429 5427 5425 5424 5423 5422 5421 5419 5419 5420 5419 5419
5523 5519 5516 5511 5507 5503 5499 5495 5490 5487 5485 5481 5477 5471 5467 5462 5458 5454 5450 5446 5441 5437 5432 5428 5423 5419 5415 5410 5405 5402 5400 5399 5397 5394 5393 5392 5390 5389 5387 5385 5386 5385 5385
5501 5497 5492 5488 5485 5480 5476 5471 5466 5463 5461 5456 5451 5445 5439 5435 5431 5427 5423 5418 5413 5408 5403 5399 5395 5391 5388 5383 5378 5375 5374 5373 5371 5370 5367 5365 5363 5361 5359 5358 5358 5357 5356
5477 5472 5468 5465 5461 5456 5451 5446 5441 5437 5433 5430 5426 5420 5413 5410 5406 5401 5397 5392 5387 5383 5380 5375 5370 5367 5363 5357 5352 5348 5347 5348 5347 5346 5344 5342 5340 5337 5335 5335 5333 5333 5333
5452 5448 5444 5440 5436 5431 5426 5421 5417 5413 5408 5404 5399 5392 5388 5386 5383 5379 5373 5369 5366 5363 5359 5355 5350 5346 5342 5335 5330 5326 5325 5325 5325 5323 5321 5321 5320 5317 5313 5312 5312 5312 5312
5426 5422 5417 5414 5410 5404 5398 5395 5391 5386 5382 5379 5373 5369 5367 5365 5360 5357 5354 5351 5348 5344 5340 5336 5331 5326 5323 5316 5310 5305 5303 5304 5304 5302 5301 5300 5299 5296 5293 5292 5292 5292 5292
5398 5394 5389 5386 5381 5376 5370 5368 5365 5361 5359 5352 5352 5350 5347 5345 5342 5339 5336 5332 5329 5326 5322 5318 5312 5308 5303 5296 5290 5284 5282 5283 5283 5282 5281 5280 5279 5278 5275 5272 5272 5272 5275
5372 5365 5362 5359 5354 5349 5345 5345 5342 5341 5334 5334 5333 5331 5328 5326 5324 5321 5318 5314 5310 5306 5303 5299 5293 5287 5282 5277 5271 5265 5263 5264 5264 5263 5262 5261 5260 5259 5257 5255 5253 5254 5255
5346 5340 5338 5336 5332 5326 5324 5324 5323 5318 5317 5316 5315 5312 5309 5307 5305 5302 5298 5294 5290 5287 5282 5277 5273 5266 5259 5255 5252 5247 5245 5246 5245 5246 5244 5243 5242 5241 5240 5238 5238 5237 5236
5324 5319 5316 5315 5312 5307 5303 5304 5302 5298 5297 5296 5294 5291 5289 5286 5282 5280 5277 5273 5268 5265 5261 5256 5252 5246 5238 5236 5232 5230 5229 5229 5227 5228 5227 5225 5225 5224 5222 5222 5222 5221 5219
5306 5301 5298 5297 5294 5287 5284 5284 5281 5277 5276 5275 5272 5270 5267 5263 5260 5257 5255 5251 5248 5244 5240 5235 5231 5225 5221 5217 5213 5213 5213 5213 5211 5210 5209 5209 5209 5208 5208 5208 5206 5205 5203
5285 5280 5277 5275 5273 5267 5265 5261 5257 5254 5254 5253 5250 5247 5244 5241 5238 5235 5232 5230 5228 5223 5220 5216 5210 5206 5204 5200 5197 5197 5197 5196 5196 5194 5193 5193 5193 5194 5193 5192 5192 5191 5190
5260 5256 5253 5250 5248 5244 5242 5238 5233 5230 5230 5230 5229 5225 5221 5218 5216 5214 5212 5208 5206 5202 5199 5196 5192 5189 5187 5185 5182 5182 5182 5181 5181 5179 5178 5181 5181 5179 5179 5180 5180 5179 5178